User: anonymous   Login
Location: Sawmill Trailhead
(33.5800°N, 116.4497°W)
Time: 18:45:35
(UTC-08:00)
Language:

Uosat F - Orbit

View from above orbital plane
View from above orbital plane
View from above satellite
View from above satellite

Ground track
Ground track

The orbit data is extracted from the following two-line orbital elements,

1 21575U 91050B   16036.90586703  .00000095  00000-0  44257-4 0  9999
2 21575  98.7567  35.2946 0007053 348.8536  11.2495 14.40711932289671
Epoch (UTC): 05 February 2016 21:44:26
Eccentricity: 0.0007053
inclination: 98.7567°
perigee height: 751 km
apogee height: 761 km
right ascension of ascending node: 35.2946°
argument of perigee: 348.8536°
revolutions per day: 14.40711932
mean anomaly at epoch: 11.2495°
orbit number at epoch: 28967

The dashed part of the orbit path shows where the satellite is in the earth's shadow,  

DLR